Location: Staunton
(38.1490°N, 79.0720°W)
Time: 01:48:31
(UTC-04:00)

ISS - Pass Details

Date: 22 May 2018
Orbit: 402 x 407 km, 51.6° (Epoch: 23 May)

Event Time Altitude Azimuth Distance (km) Brightness Sun altitude
Rises 00:02:30 0° 292° (WNW) 2,316 0.6 -29.2°
Maximum altitude 00:06:48 10° 346° (NNW) 1,458 -0.1 -29.5°
Drops below altitude 10° 00:06:49 10° 347° (NNW) 1,458 -0.1 -29.5°
Sets 00:11:07 0° 41° (NE) 2,317 0.4 -29.7°
